Regional Weather Roundup
Issued by NWS Bismarck, ND

Home | Current Version | Previous Version | Text Only | Print | Product List | Glossary On
Versions: 1 2 3 4 5 6 7 8 9 10 11 12 13 14 15 16 17 18 19 20 21 22 23 24 25 26 27 28 29 30 31 32 33 34 35 36 37 38 39 40 41 42 43 44 45 46 47 48 49 50
000
ASUS43 KBIS 300720
RWRBIS

NWR BROADCAST TEXT
NATIONAL WEATHER SERVICE BISMARCK ND
100 AM CST FRI JAN 30 2015

NOTE: "FAIR" INDICATES FEW OR NO CLOUDS BELOW 12,000 FEET WITH NO
SIGNIFICANT WEATHER AND/OR OBSTRUCTIONS TO VISIBILITY.


CITY           SKY/WX    TMP DP  RH WIND       PRES   REMARKS
WILLISTON      PTCLDY    26  20  77 S7        30.21F WCI  18
MINOT          PTCLDY    15  11  83 SE6       30.31F WCI   6
MINOT AFB      PTCLDY    15  15  99 SE9       30.31F WCI   3
BISMARCK       CLEAR     17  15  92 SE8       30.39F WCI   7
DICKINSON      CLEAR     24  17  74 S12       30.24F WCI  13
GARRISON         N/A     18  15  88 SE6       30.31F WCI  10
HETTINGER ARPT CLEAR     25  16  68 SE6       30.30F WCI  18
JAMESTOWN      CLOUDY    18  13  80 SE9       30.43F WCI   7
BEACH          FAIR      28  19  69 S8        30.23F
CARRINGTON     CLOUDY    16  16 100 MISG      30.40F
CROSBY         FAIR      25  23  93 S13G18    30.21F WCI  13
HARVEY         PTSUNNY   16  14  93 SE13      30.37F WCI   2
HAZEN          FAIR      21  16  79 S6        30.33F WCI  14
LINTON         FAIR      19  19 100 SE12G21   30.39F WCI   7
MANDAN         FAIR      18  16  93 SE10      30.37F WCI   6
OAKES            N/A     18  14  86 SE6       30.49F WCI   9
RUGBY          FAIR      14  10  85 SE10      30.37F WCI   1
STANLEY        CLOUDY    19  19 100 S10       30.23F WCI   8
TIOGA          FAIR      19  19 100 SE3       30.26F
WATFORD CITY   FAIR      23  21  93 E7        30.23F WCI  15
$$

CITY           SKY/WX    TMP DP  RH WIND       PRES   REMARKS
GRAND FORKS    CLOUDY     6  -1  73 S7        30.54F WCI  -6
GRAND FORKS AF MOCLDY     6   0  76 S8        30.52F WCI  -7
DEVILS LAKE    CLOUDY    10   7  85 SE12      30.40F WCI  -4
FARGO          MOCLDY     8   1  73 SE6       30.55F WCI  -2
CANDO          CLOUDY    14   9  79 S9        30.41F WCI   2
CAVALIER       FAIR       5   0  78 S8        30.51F WCI  -8
GWINNER        CLOUDY    19  14  79 SE6       30.51F WCI  11
ROLLA          CLOUDY     9   9 100 S12       30.36F WCI  -6
WALHALLA         N/A      5   5 100 SE7       30.49F WCI  -7
$$

CITY           SKY/WX    TMP DP  RH WIND       PRES   REMARKS
ABERDEEN       CLEAR     16  12  84 S5        30.50F WCI   9
MOBRIDGE       CLEAR     22  18  85 SE13      30.39F WCI  10
BUFFALO          N/A     27  15  61 S9        30.20F WCI  18
RAPID CITY     CLEAR     23  12  62 SE7       30.29F WCI  15
GLASGOW        PTCLDY    25  21  85 E7        30.17F WCI  17
SIDNEY         CLEAR     23  19  86 CALM      30.23F
WOLF POINT     CLEAR     24  21  88 N3        30.19F
GLENDIVE       CLEAR     28  21  74 S8        30.21F
MILES CITY     CLEAR     32  23  69 S12       30.21F
BAKER          CLEAR     32  18  56 S14       30.23F
$$

CITY           SKY/WX    TMP DP  RH WIND       PRES   REMARKS
BILLINGS       PTCLDY    36  27  69 SW13      30.22F
GREAT FALLS    CLEAR     32  19  58 SW14      30.21R
REGINA         PTCLDY    16  14  93 SE14      30.18F WCI   1
ESTEVAN        PTCLDY    14  12  92 E9        30.23F WCI   2
$$



USA.gov is the U.S. government's official web portal to all federal, state and local government web resources and services.